UAE392 OMDB-VVTS

Flight info

Callsign UAE392
Flight time N/A
Altitude 33000
Route IVURO M677 LALDO B505 NADSO A777 VAXIM L301 RASKI L639 LAXOM/N0486F350 L639 BPL T1 BBS N895 BETNO P646 BKK N506 ELMOP R468 SAPEN SAPEN5B
Aircraft B77W/H-SDE1E2E3FGHIJ2J3J4J5M1RWXY/LB1D1

Departure

Time 2026-04-24 08:36
Airport Dubai International Airport (OMDB)

Arrival

Time N/A
Airport Tan Son Nhat International Airport (VVTS)
Time Latitude Longitude Altitude Speed Heading
2026-04-24 08:36 25.12145 55.30325 9281 ft 301 kts 121°
2026-04-24 08:36 25.11160 55.32373 9901 ft 304 kts 121°
2026-04-24 08:37 25.10198 55.34466 10492 ft 307 kts 117°
2026-04-24 08:37 25.09319 55.36619 11123 ft 310 kts 116°
2026-04-24 08:37 25.08418 55.38849 11438 ft 329 kts 116°
2026-04-24 08:37 25.07446 55.41224 11614 ft 351 kts 116°
2026-04-24 08:38 25.06434 55.43772 11779 ft 373 kts 115°
2026-04-24 08:38 25.05401 55.46479 12077 ft 390 kts 114°
2026-04-24 08:38 25.04343 55.49266 12660 ft 398 kts 115°
2026-04-24 08:38 25.03259 55.52095 13339 ft 403 kts 115°
2026-04-24 08:39 25.02159 55.54948 14049 ft 405 kts 115°
2026-04-24 08:39 25.00912 55.57744 14667 ft 409 kts 121°
2026-04-24 08:39 24.99424 55.60435 15253 ft 413 kts 124°
2026-04-24 08:39 24.97865 55.63125 15828 ft 419 kts 123°
2026-04-24 08:40 24.96326 55.65870 16424 ft 423 kts 122°
2026-04-24 08:40 24.94802 55.68665 17031 ft 428 kts 122°
2026-04-24 08:40 24.93226 55.71463 17588 ft 432 kts 126°
2026-04-24 08:40 24.91466 55.74166 18144 ft 437 kts 128°
2026-04-24 08:41 24.89016 55.77720 18795 ft 442 kts 128°
2026-04-24 08:41 24.87804 55.79587 19166 ft 444 kts 125°
2026-04-24 08:41 24.86133 55.82454 19749 ft 446 kts 123°
2026-04-24 08:41 24.84506 55.85381 20306 ft 449 kts 122°
2026-04-24 08:42 24.82903 55.88295 20799 ft 453 kts 122°
2026-04-24 08:42 24.81269 55.91279 21292 ft 457 kts 122°
2026-04-24 08:42 24.79625 55.94290 21811 ft 461 kts 122°
2026-04-24 08:42 24.77973 55.97324 22317 ft 464 kts 122°
2026-04-24 08:43 24.76310 56.00385 22835 ft 467 kts 122°
2026-04-24 08:43 24.74640 56.03464 23307 ft 471 kts 122°
2026-04-24 08:43 24.72957 56.06572 23723 ft 474 kts 122°
2026-04-24 08:43 24.71263 56.09701 24119 ft 478 kts 122°
2026-04-24 08:44 24.69559 56.12848 24523 ft 481 kts 122°
2026-04-24 08:44 24.67847 56.16020 24880 ft 484 kts 121°
2026-04-24 08:44 24.66319 56.19336 25244 ft 489 kts 114°
2026-04-24 08:44 24.65085 56.22832 25622 ft 492 kts 109°
2026-04-24 08:45 24.64058 56.26429 26014 ft 495 kts 106°
2026-04-24 08:45 24.63143 56.30094 26390 ft 498 kts 105°
2026-04-24 08:45 24.62272 56.33792 26755 ft 501 kts 104°
2026-04-24 08:45 24.61403 56.37513 27110 ft 504 kts 105°
2026-04-24 08:46 24.60515 56.41248 27460 ft 507 kts 105°
2026-04-24 08:46 24.59603 56.44994 27801 ft 509 kts 105°
2026-04-24 08:46 24.58669 56.48760 28132 ft 512 kts 105°
2026-04-24 08:46 24.57718 56.52544 28443 ft 515 kts 105°
2026-04-24 08:47 24.56756 56.56344 28757 ft 517 kts 105°
2026-04-24 08:47 24.55786 56.60158 29079 ft 519 kts 105°
2026-04-24 08:47 24.54815 56.63974 29522 ft 518 kts 105°
2026-04-24 08:47 24.53860 56.67725 29977 ft 516 kts 105°
2026-04-24 08:48 24.52894 56.71519 30351 ft 516 kts 105°
2026-04-24 08:48 24.51927 56.75318 30662 ft 517 kts 105°
2026-04-24 08:48 24.50959 56.79118 30963 ft 517 kts 105°
2026-04-24 08:48 24.49989 56.82924 31287 ft 518 kts 105°
2026-04-24 08:49 24.49018 56.86727 31632 ft 517 kts 105°
2026-04-24 08:49 24.48047 56.90528 31975 ft 517 kts 105°
2026-04-24 08:49 24.47076 56.94324 32294 ft 517 kts 105°
2026-04-24 08:49 24.46102 56.98127 32574 ft 517 kts 105°
2026-04-24 08:50 24.45127 57.01927 32778 ft 520 kts 105°
2026-04-24 08:50 24.43158 57.09595 32849 ft 522 kts 105°
2026-04-24 08:51 24.41201 57.17194 32840 ft 514 kts 105°
2026-04-24 08:51 24.39259 57.24722 32850 ft 513 kts 105°
2026-04-24 08:52 24.37312 57.32253 32842 ft 513 kts 105°
2026-04-24 08:52 24.35359 57.39786 32843 ft 514 kts 105°
2026-04-24 08:53 24.33402 57.47323 32840 ft 514 kts 105°
2026-04-24 08:53 24.31437 57.54873 32834 ft 515 kts 105°
2026-04-24 08:54 24.29469 57.62416 32834 ft 515 kts 105°
2026-04-24 08:54 24.27496 57.69961 32838 ft 515 kts 105°
2026-04-24 08:55 24.25520 57.77500 32821 ft 514 kts 105°
2026-04-24 08:55 24.23543 57.85027 32828 ft 514 kts 105°
2026-04-24 08:56 24.21565 57.92545 32832 ft 513 kts 105°
2026-04-24 08:56 24.19583 58.00058 32828 ft 513 kts 105°
2026-04-24 08:57 24.17601 58.07558 32832 ft 512 kts 105°
2026-04-24 08:57 24.15617 58.15047 32831 ft 512 kts 105°
2026-04-24 08:58 24.13630 58.22531 32832 ft 512 kts 105°
2026-04-24 08:58 24.11641 58.30006 32831 ft 511 kts 105°
2026-04-24 08:59 24.09649 58.37479 32826 ft 511 kts 105°
2026-04-24 08:59 24.07654 58.44947 32831 ft 511 kts 105°
2026-04-24 09:00 24.05654 58.52413 32829 ft 511 kts 105°
2026-04-24 09:00 24.03651 58.59879 32833 ft 511 kts 105°
2026-04-24 09:01 24.01645 58.67341 32833 ft 511 kts 105°
2026-04-24 09:01 23.99647 58.74755 32828 ft 511 kts 105°
2026-04-24 09:02 23.97634 58.82211 32819 ft 511 kts 105°
2026-04-24 09:02 23.95616 58.89666 32831 ft 511 kts 105°
2026-04-24 09:03 23.93595 58.97120 32830 ft 511 kts 105°
2026-04-24 09:03 23.91570 59.04572 32834 ft 511 kts 105°
2026-04-24 09:04 23.89543 59.12017 32830 ft 511 kts 105°
2026-04-24 09:04 23.87513 59.19457 32831 ft 511 kts 105°
2026-04-24 09:05 23.85482 59.26885 32828 ft 510 kts 105°
2026-04-24 09:05 23.83449 59.34306 32836 ft 510 kts 105°
2026-04-24 09:06 23.81416 59.41709 32826 ft 509 kts 105°
2026-04-24 09:06 23.79382 59.49101 32830 ft 508 kts 105°
2026-04-24 09:07 23.77350 59.56475 32829 ft 507 kts 105°
2026-04-24 09:07 23.74297 59.67521 32834 ft 506 kts 105°
2026-04-24 09:08 23.72262 59.74864 32830 ft 505 kts 105°
2026-04-24 09:08 23.70227 59.82195 32833 ft 504 kts 105°
2026-04-24 09:09 23.68191 59.89512 32838 ft 504 kts 105°
2026-04-24 09:09 23.66153 59.96823 32836 ft 503 kts 105°
2026-04-24 09:10 23.64117 60.04113 32834 ft 502 kts 105°
2026-04-24 09:10 23.62079 60.11396 32835 ft 502 kts 105°
2026-04-24 09:11 23.60040 60.18667 32842 ft 501 kts 105°
2026-04-24 09:11 23.57999 60.25932 32839 ft 501 kts 105°
2026-04-24 09:12 23.55955 60.33190 32838 ft 500 kts 106°
2026-04-24 09:12 23.53911 60.40437 32838 ft 500 kts 106°
2026-04-24 09:13 23.51864 60.47680 32842 ft 500 kts 106°
2026-04-24 09:13 23.49828 60.54870 32838 ft 500 kts 106°
2026-04-24 09:14 23.47764 60.62147 32838 ft 499 kts 106°
2026-04-24 09:14 23.45725 60.69321 32838 ft 499 kts 106°
2026-04-24 09:15 23.43669 60.76540 32838 ft 499 kts 106°
2026-04-24 09:15 23.41611 60.83752 32838 ft 499 kts 106°
2026-04-24 09:16 23.39549 60.90963 32838 ft 499 kts 106°
2026-04-24 09:16 23.37486 60.98165 32838 ft 498 kts 106°
2026-04-24 09:17 23.35420 61.05365 32842 ft 498 kts 105°
2026-04-24 09:17 23.33352 61.12561 32842 ft 498 kts 105°
2026-04-24 09:18 23.31558 61.19813 32836 ft 495 kts 98°
2026-04-24 09:18 23.30827 61.27238 32845 ft 493 kts 93°
2026-04-24 09:19 23.30226 61.34673 32841 ft 493 kts 93°
2026-04-24 09:19 23.29589 61.42109 32841 ft 494 kts 93°
2026-04-24 09:20 23.28926 61.49546 32839 ft 494 kts 93°
2026-04-24 09:20 23.28253 61.56989 32838 ft 494 kts 93°
2026-04-24 09:21 23.27577 61.64429 32838 ft 495 kts 93°
2026-04-24 09:21 23.26898 61.71876 32839 ft 495 kts 93°
2026-04-24 09:22 23.26217 61.79320 32841 ft 495 kts 93°
2026-04-24 09:22 23.25532 61.86766 32841 ft 495 kts 93°
2026-04-24 09:23 23.24844 61.94211 32842 ft 495 kts 93°
2026-04-24 09:23 23.24152 62.01647 32840 ft 494 kts 93°
2026-04-24 09:24 23.23576 62.07819 32839 ft 493 kts 93°
2026-04-24 09:24 23.22880 62.15237 32841 ft 493 kts 93°
2026-04-24 09:25 23.22180 62.22650 32848 ft 493 kts 93°
2026-04-24 09:25 23.21479 62.30055 32845 ft 492 kts 93°
2026-04-24 09:26 23.20775 62.37441 32839 ft 491 kts 93°
2026-04-24 09:26 23.20068 62.44820 32841 ft 490 kts 93°
2026-04-24 09:27 23.19359 62.52192 32841 ft 490 kts 93°
2026-04-24 09:27 23.18647 62.59553 32842 ft 490 kts 94°
2026-04-24 09:28 23.17932 62.66905 32840 ft 489 kts 94°
2026-04-24 09:28 23.17214 62.74259 32841 ft 489 kts 94°
2026-04-24 09:29 23.16493 62.81606 32843 ft 489 kts 94°
2026-04-24 09:29 23.15769 62.88954 32844 ft 489 kts 94°
2026-04-24 09:30 23.14922 62.97500 32847 ft 490 kts 94°
2026-04-24 09:30 23.14308 63.03664 32851 ft 490 kts 94°
2026-04-24 09:31 23.13571 63.11023 32847 ft 490 kts 94°
2026-04-24 09:31 23.12832 63.18380 32848 ft 490 kts 94°
2026-04-24 09:32 23.12088 63.25742 32847 ft 490 kts 94°
2026-04-24 09:32 23.11342 63.33102 32845 ft 490 kts 94°
2026-04-24 09:33 23.10597 63.40409 32846 ft 490 kts 94°
2026-04-24 09:33 23.09844 63.47762 32848 ft 490 kts 94°
2026-04-24 09:34 23.09088 63.55116 32848 ft 490 kts 94°
2026-04-24 09:34 23.08328 63.62466 32847 ft 490 kts 94°
2026-04-24 09:35 23.07565 63.69817 32842 ft 490 kts 94°
2026-04-24 09:35 23.06799 63.77162 32845 ft 490 kts 95°
2026-04-24 09:36 23.06030 63.84515 32846 ft 490 kts 95°
2026-04-24 09:36 23.05268 63.91869 32845 ft 490 kts 94°
2026-04-24 09:37 23.04529 63.99225 32845 ft 490 kts 94°
2026-04-24 09:37 23.03788 64.06579 32845 ft 490 kts 94°
2026-04-24 09:38 23.03040 64.13940 32842 ft 490 kts 94°
2026-04-24 09:38 23.02287 64.21294 32846 ft 490 kts 94°
2026-04-24 09:39 23.01530 64.28644 32844 ft 490 kts 95°
2026-04-24 09:39 23.00776 64.35946 32849 ft 490 kts 95°
2026-04-24 09:40 23.00008 64.43341 32844 ft 490 kts 95°
2026-04-24 09:40 22.99242 64.50682 32844 ft 489 kts 94°
2026-04-24 09:41 22.98474 64.58019 32849 ft 489 kts 95°
2026-04-24 09:41 22.97707 64.65306 32848 ft 489 kts 95°
2026-04-24 09:42 22.96932 64.72639 32846 ft 489 kts 95°
2026-04-24 09:42 22.96155 64.79969 32848 ft 489 kts 95°
2026-04-24 09:43 22.95734 64.87314 32850 ft 487 kts 88°
2026-04-24 09:43 22.95816 64.94657 32850 ft 487 kts 87°
2026-04-24 09:44 22.95901 65.02005 32847 ft 487 kts 87°
2026-04-24 09:44 22.95955 65.09357 32849 ft 487 kts 88°
2026-04-24 09:45 22.95990 65.16702 32844 ft 487 kts 88°
2026-04-24 09:45 22.96020 65.24044 32843 ft 486 kts 88°
2026-04-24 09:46 22.96033 65.31380 32856 ft 486 kts 87°
2026-04-24 09:46 22.96063 65.38703 32839 ft 485 kts 87°
2026-04-24 09:47 22.96093 65.46024 32843 ft 485 kts 87°
2026-04-24 09:47 22.96114 65.53342 32846 ft 485 kts 87°
2026-04-24 09:48 22.96129 65.60656 32842 ft 485 kts 88°
2026-04-24 09:48 22.96140 65.67971 32850 ft 485 kts 87°
2026-04-24 09:49 22.96148 65.75284 32840 ft 485 kts 87°
2026-04-24 09:49 22.96153 65.82601 32841 ft 485 kts 87°
2026-04-24 09:50 22.96155 65.89915 32841 ft 485 kts 87°
2026-04-24 09:50 22.96153 65.97187 32847 ft 485 kts 87°
2026-04-24 09:51 22.96148 66.04511 32844 ft 486 kts 87°
2026-04-24 09:51 22.96140 66.11841 32844 ft 486 kts 87°
2026-04-24 09:52 22.96128 66.19173 32843 ft 486 kts 87°
2026-04-24 09:52 22.96113 66.26513 32849 ft 486 kts 88°
2026-04-24 09:53 22.96094 66.33858 32841 ft 487 kts 88°
2026-04-24 09:53 22.96072 66.41204 32845 ft 487 kts 88°
2026-04-24 09:54 22.96047 66.48554 32844 ft 487 kts 88°
2026-04-24 09:54 22.96018 66.55911 32837 ft 487 kts 88°
2026-04-24 09:55 22.95986 66.63265 32838 ft 488 kts 88°
2026-04-24 09:55 22.95950 66.70632 32843 ft 488 kts 88°
2026-04-24 09:56 22.95911 66.77999 32841 ft 488 kts 88°
2026-04-24 09:56 22.95869 66.85367 32839 ft 489 kts 88°
2026-04-24 09:57 22.95824 66.92740 32846 ft 489 kts 89°
2026-04-24 09:57 22.95790 67.00116 32840 ft 489 kts 88°
2026-04-24 09:58 22.95811 67.07446 32839 ft 489 kts 88°
2026-04-24 09:58 22.95838 67.14869 32839 ft 489 kts 88°
2026-04-24 09:59 22.95853 67.22238 32843 ft 488 kts 88°
2026-04-24 09:59 22.95860 67.29554 32835 ft 488 kts 88°
2026-04-24 10:00 22.95863 67.36919 32837 ft 488 kts 88°
2026-04-24 10:00 22.95864 67.44282 32839 ft 488 kts 88°
2026-04-24 10:01 22.95861 67.51640 32835 ft 488 kts 88°
2026-04-24 10:01 22.95855 67.59000 32837 ft 488 kts 88°
2026-04-24 10:02 22.95845 67.66361 32837 ft 488 kts 88°
2026-04-24 10:02 22.95832 67.73722 32833 ft 488 kts 88°
2026-04-24 10:03 22.95816 67.81083 32833 ft 488 kts 88°
2026-04-24 10:03 22.95798 67.88451 32834 ft 488 kts 88°
2026-04-24 10:04 22.95803 67.95814 32832 ft 488 kts 88°
2026-04-24 10:04 22.95815 68.03179 32834 ft 488 kts 88°
2026-04-24 10:05 22.95820 68.10545 32834 ft 488 kts 88°
2026-04-24 10:05 22.95819 68.17912 32832 ft 488 kts 88°
2026-04-24 10:06 22.95811 68.28959 32829 ft 488 kts 88°
2026-04-24 10:07 22.95803 68.36323 32831 ft 488 kts 88°
2026-04-24 10:07 22.95529 68.43681 32829 ft 488 kts 92°
2026-04-24 10:08 22.95078 68.50982 32831 ft 488 kts 92°
2026-04-24 10:08 22.94620 68.58342 32894 ft 491 kts 92°
2026-04-24 10:08 22.94398 68.62039 33185 ft 491 kts 92°
2026-04-24 10:09 22.94179 68.65729 33582 ft 489 kts 92°
2026-04-24 10:09 22.93962 68.69400 33960 ft 487 kts 91°
2026-04-24 10:09 22.93747 68.73058 34282 ft 485 kts 91°
2026-04-24 10:09 22.93531 68.76705 34555 ft 485 kts 91°
2026-04-24 10:10 22.93314 68.80359 34739 ft 486 kts 91°
2026-04-24 10:10 22.92875 68.87726 34812 ft 491 kts 91°
2026-04-24 10:11 22.92430 68.95085 34826 ft 486 kts 92°
2026-04-24 10:11 22.91985 69.02384 34823 ft 484 kts 92°
2026-04-24 10:12 22.91539 69.09651 34828 ft 482 kts 92°
2026-04-24 10:12 22.91092 69.16907 34826 ft 482 kts 92°
2026-04-24 10:13 22.90717 69.22944 34818 ft 483 kts 92°
2026-04-24 10:13 22.90261 69.30233 34822 ft 486 kts 91°
2026-04-24 10:14 22.89799 69.37554 34825 ft 488 kts 91°
2026-04-24 10:14 22.89332 69.44906 34819 ft 490 kts 92°
2026-04-24 10:15 22.88860 69.52281 34825 ft 490 kts 92°
2026-04-24 10:15 22.88384 69.59662 34823 ft 491 kts 92°
2026-04-24 10:16 22.87906 69.67034 34814 ft 490 kts 92°
2026-04-24 10:16 22.87440 69.74397 34811 ft 489 kts 91°
2026-04-24 10:17 22.87018 69.81751 34813 ft 488 kts 91°
2026-04-24 10:17 22.86599 69.89090 34814 ft 487 kts 91°
2026-04-24 10:18 22.86171 69.96420 34810 ft 487 kts 91°
2026-04-24 10:18 22.85737 70.03739 34811 ft 486 kts 91°
2026-04-24 10:19 22.85299 70.11054 34816 ft 486 kts 91°
2026-04-24 10:19 22.84859 70.18358 34824 ft 486 kts 91°
2026-04-24 10:20 22.84416 70.25664 34829 ft 486 kts 92°
2026-04-24 10:20 22.83969 70.32970 34827 ft 486 kts 92°
2026-04-24 10:21 22.83518 70.40280 34829 ft 486 kts 92°
2026-04-24 10:21 22.83068 70.47540 34825 ft 486 kts 92°
2026-04-24 10:22 22.82607 70.54903 34840 ft 486 kts 92°
2026-04-24 10:22 22.82147 70.62214 34821 ft 487 kts 92°
2026-04-24 10:23 22.81682 70.69535 34817 ft 487 kts 92°
2026-04-24 10:23 22.81218 70.76808 34811 ft 487 kts 92°
2026-04-24 10:24 22.81014 70.84126 34816 ft 485 kts 85°
2026-04-24 10:24 22.81920 70.91332 34821 ft 482 kts 78°
2026-04-24 10:25 22.83057 70.98503 34818 ft 483 kts 78°
2026-04-24 10:25 22.84167 71.05690 34797 ft 484 kts 79°
2026-04-24 10:26 22.85251 71.12896 34798 ft 484 kts 79°
2026-04-24 10:26 22.86324 71.20110 34788 ft 485 kts 79°
2026-04-24 10:27 22.87394 71.27326 34787 ft 485 kts 79°
2026-04-24 10:27 22.88462 71.34541 34782 ft 485 kts 79°
2026-04-24 10:28 22.89527 71.41755 34787 ft 485 kts 79°
2026-04-24 10:28 22.90589 71.48970 34786 ft 484 kts 79°
2026-04-24 10:29 22.91647 71.56188 34784 ft 484 kts 79°
2026-04-24 10:29 22.92703 71.63407 34779 ft 485 kts 79°
2026-04-24 10:30 22.93756 71.70632 34777 ft 485 kts 79°
2026-04-24 10:30 22.94806 71.77863 34776 ft 485 kts 79°
2026-04-24 10:31 22.95854 71.85095 34762 ft 486 kts 79°
2026-04-24 10:31 22.96898 71.92338 34770 ft 486 kts 79°
2026-04-24 10:32 22.97941 71.99584 34757 ft 486 kts 79°
2026-04-24 10:32 22.98974 72.06791 34762 ft 487 kts 79°
2026-04-24 10:33 23.00018 72.14096 34764 ft 487 kts 79°
2026-04-24 10:33 23.01045 72.21309 34752 ft 487 kts 79°
2026-04-24 10:34 23.02075 72.28569 34744 ft 487 kts 79°
2026-04-24 10:34 23.03110 72.35888 34751 ft 487 kts 80°
2026-04-24 10:35 23.04128 72.43110 34744 ft 488 kts 80°
2026-04-24 10:35 23.05151 72.50390 34742 ft 488 kts 80°
2026-04-24 10:36 23.06171 72.57675 34755 ft 488 kts 80°
2026-04-24 10:36 23.07080 72.64984 34741 ft 490 kts 85°
2026-04-24 10:37 23.07494 72.72369 34745 ft 491 kts 85°
2026-04-24 10:37 23.07867 72.79773 34761 ft 492 kts 85°
2026-04-24 10:38 23.08260 72.87199 34750 ft 493 kts 85°
2026-04-24 10:38 23.08667 72.94633 34749 ft 493 kts 85°
2026-04-24 10:39 23.09076 73.02076 34745 ft 494 kts 85°
2026-04-24 10:39 23.09481 73.09538 34757 ft 495 kts 85°
2026-04-24 10:40 23.09882 73.17007 34753 ft 496 kts 85°
2026-04-24 10:40 23.10279 73.24483 34763 ft 496 kts 86°
2026-04-24 10:41 23.10673 73.31964 34763 ft 496 kts 86°
2026-04-24 10:41 23.11064 73.39450 34760 ft 497 kts 86°
2026-04-24 10:42 23.11452 73.46939 34756 ft 497 kts 86°
2026-04-24 10:42 23.11836 73.54436 34770 ft 497 kts 86°
2026-04-24 10:43 23.12217 73.61934 34773 ft 497 kts 86°
2026-04-24 10:43 23.12594 73.69433 34776 ft 498 kts 86°
2026-04-24 10:44 23.12969 73.76942 34776 ft 498 kts 86°
2026-04-24 10:44 23.13336 73.84400 34787 ft 498 kts 86°
2026-04-24 10:45 23.13703 73.91910 34788 ft 498 kts 86°
2026-04-24 10:45 23.14067 73.99418 34791 ft 498 kts 86°
2026-04-24 10:46 23.14427 74.06931 34791 ft 498 kts 86°
2026-04-24 10:46 23.14784 74.14444 34802 ft 498 kts 86°
2026-04-24 10:47 23.15137 74.21958 34808 ft 498 kts 86°
2026-04-24 10:47 23.15487 74.29476 34808 ft 498 kts 86°
2026-04-24 10:48 23.15810 74.36994 34816 ft 498 kts 88°
2026-04-24 10:48 23.15972 74.44518 34815 ft 498 kts 89°
2026-04-24 10:49 23.16091 74.52046 34831 ft 498 kts 89°
2026-04-24 10:49 23.16226 74.59576 34825 ft 498 kts 89°
2026-04-24 10:50 23.16372 74.67108 34836 ft 498 kts 89°
2026-04-24 10:50 23.16519 74.74636 34836 ft 498 kts 89°
2026-04-24 10:51 23.16661 74.82165 34842 ft 498 kts 89°
2026-04-24 10:51 23.16798 74.89698 34841 ft 498 kts 89°
2026-04-24 10:52 23.16932 74.97227 34842 ft 498 kts 89°
2026-04-24 10:52 23.17062 75.04762 34841 ft 498 kts 89°
2026-04-24 10:53 23.17189 75.12296 34835 ft 499 kts 89°
2026-04-24 10:53 23.17313 75.19848 34846 ft 501 kts 89°
2026-04-24 10:54 23.17433 75.27420 34849 ft 502 kts 89°
2026-04-24 10:54 23.17549 75.34967 34848 ft 503 kts 89°
2026-04-24 10:55 23.17662 75.42569 34850 ft 504 kts 89°
2026-04-24 10:55 23.17772 75.50187 34846 ft 504 kts 89°
2026-04-24 10:56 23.17879 75.57808 34848 ft 504 kts 89°
2026-04-24 10:56 23.17981 75.65428 34844 ft 504 kts 89°
2026-04-24 10:57 23.18080 75.73044 34842 ft 504 kts 89°
2026-04-24 10:57 23.18175 75.80659 34836 ft 504 kts 89°
2026-04-24 10:58 23.18267 75.88275 34849 ft 504 kts 90°
2026-04-24 10:58 23.18355 75.95886 34832 ft 504 kts 90°
2026-04-24 10:59 23.18616 76.03492 34831 ft 504 kts 85°
2026-04-24 10:59 23.19221 76.11081 34828 ft 504 kts 85°
2026-04-24 11:00 23.19847 76.18670 34828 ft 505 kts 85°
2026-04-24 11:00 23.20446 76.26276 34834 ft 506 kts 85°
2026-04-24 11:01 23.20930 76.32612 34830 ft 506 kts 86°
2026-04-24 11:01 23.21601 76.41485 34822 ft 507 kts 86°
2026-04-24 11:02 23.22083 76.47894 34818 ft 508 kts 86°
2026-04-24 11:02 23.22657 76.55545 34816 ft 508 kts 86°
2026-04-24 11:03 23.23227 76.63203 34820 ft 508 kts 86°
2026-04-24 11:03 23.23791 76.70820 34814 ft 509 kts 86°
2026-04-24 11:04 23.24354 76.78495 34810 ft 509 kts 86°
2026-04-24 11:04 23.24914 76.86167 34813 ft 509 kts 86°
2026-04-24 11:05 23.25471 76.93848 34826 ft 509 kts 86°
2026-04-24 11:05 23.26024 77.01539 34815 ft 511 kts 86°
2026-04-24 11:06 23.26576 77.09241 34809 ft 512 kts 86°
2026-04-24 11:06 23.27124 77.16963 34812 ft 512 kts 86°
2026-04-24 11:07 23.27906 77.28557 34803 ft 513 kts 90°
2026-04-24 11:07 23.27227 77.36229 34811 ft 509 kts 104°
2026-04-24 11:08 23.25143 77.43546 34827 ft 506 kts 113°
2026-04-24 11:08 23.22666 77.50714 34801 ft 507 kts 113°
2026-04-24 11:09 23.20202 77.57903 34810 ft 508 kts 113°
2026-04-24 11:09 23.17766 77.65122 34798 ft 509 kts 113°
2026-04-24 11:10 23.15335 77.72362 34798 ft 511 kts 113°
2026-04-24 11:10 23.12897 77.79615 34797 ft 511 kts 113°
2026-04-24 11:11 23.10470 77.86815 34809 ft 511 kts 113°
2026-04-24 11:11 23.08021 77.94062 34805 ft 511 kts 113°
2026-04-24 11:12 23.05570 78.01302 34803 ft 511 kts 113°
2026-04-24 11:12 23.03116 78.08540 34807 ft 511 kts 113°
2026-04-24 11:13 23.00659 78.15773 34800 ft 511 kts 113°
2026-04-24 11:13 22.98199 78.23005 34781 ft 511 kts 114°
2026-04-24 11:14 22.95735 78.30236 34805 ft 511 kts 114°
2026-04-24 11:14 22.93265 78.37471 34812 ft 512 kts 114°
2026-04-24 11:15 22.90789 78.44710 34811 ft 512 kts 114°
2026-04-24 11:15 22.88306 78.51960 34806 ft 513 kts 114°
2026-04-24 11:16 22.85818 78.59211 34804 ft 513 kts 114°
2026-04-24 11:16 22.83328 78.66458 34809 ft 513 kts 114°
2026-04-24 11:17 22.80832 78.73707 34811 ft 513 kts 114°
2026-04-24 11:17 22.78331 78.80961 34818 ft 514 kts 114°
2026-04-24 11:18 22.75826 78.88211 34823 ft 514 kts 114°
2026-04-24 11:18 22.73315 78.95470 34820 ft 514 kts 114°
2026-04-24 11:19 22.70800 79.02729 34819 ft 515 kts 115°
2026-04-24 11:19 22.68270 79.10012 34821 ft 519 kts 116°
2026-04-24 11:20 22.65717 79.17352 34835 ft 523 kts 116°
2026-04-24 11:20 22.63143 79.24743 34834 ft 526 kts 116°
2026-04-24 11:21 22.60554 79.32170 34830 ft 528 kts 116°
2026-04-24 11:21 22.57959 79.39600 34826 ft 527 kts 116°
2026-04-24 11:22 22.55369 79.47017 34810 ft 527 kts 116°
2026-04-24 11:22 22.52801 79.54434 34821 ft 526 kts 116°
2026-04-24 11:23 22.50237 79.61845 34822 ft 526 kts 116°
2026-04-24 11:23 22.47667 79.69252 34818 ft 526 kts 116°
2026-04-24 11:24 22.45088 79.76662 34797 ft 527 kts 116°
2026-04-24 11:24 22.42501 79.84084 34802 ft 529 kts 117°
2026-04-24 11:25 22.39893 79.91549 34810 ft 533 kts 117°
2026-04-24 11:25 22.37268 79.99053 34809 ft 536 kts 117°
2026-04-24 11:26 22.34626 80.06597 34812 ft 538 kts 117°
2026-04-24 11:26 22.31994 80.14106 34803 ft 538 kts 117°